Weather History for Culiacan, Mexico

Change the Weather History Date:

Friday, February 22, 2013

  Actual Average Record
Temperature  
Mean Temperature 60 °F -  
Max Temperature 77 °F 83 °F 96 °F (2002)
Min Temperature 44 °F 54 °F 44 °F (2013)
Degree Days  
Heating Degree Days 4    
Growing Degree Days 10 (Base 50)    
Moisture  
Dew Point 48 °F    
Average Humidity 58    
Maximum Humidity 84    
Minimum Humidity 20    
Precipitation  
Precipitation 0.00 in - - ()
Sea Level Pressure  
Sea Level Pressure 29.96 in    
Wind  
Wind Speed 2 mph ()    
Max Wind Speed 12 mph    
Max Gust Speed -    
Visibility 11.0 miles    
Events      
Averages and records for this station are not official NWS values.
T = Trace of Precipitation, MM = Missing Value Source: Averaged Metar Reports

Daily Weather History Graph

Daily Weather History Graph

Search for Another Location

Airport:

Trip Planner

Search our weather history database for the weather conditions in past years. The results will help you decide how hot, cold, wet, or windy it might be!

Date:

Astronomy

Feb. 22, 2013 Rise Set
Actual Time 6:38 AM MST 6:08 PM MST
Civil Twilight 6:15 AM MST 6:31 PM MST
Nautical Twilight 5:48 AM MST 6:58 PM MST
Astronomical Twilight 5:22 AM MST 7:24 PM MST
Moon 3:33 PM MST (2/22) 4:12 AM MST (2/22)
Length of Visible Light 12h 16m
Length of Day
11h 30m
Waxing Gibbous, 90% of the Moon is Illuminated
Feb 22
Waxing Gibbous
Feb 25
Full
Mar 4
Last Quarter
Mar 11
New
Mar 19
First Quarter

Hourly Weather History & Observations

Time (MST) Temp. Dew Point Humidity Pressure Visibility Wind Dir Wind Speed Gust Speed Precip Events Conditions
12:43 AM 53.6 °F 46.4 °F 77% 29.96 in 10.0 mi Calm Calm - N/A   Mostly Cloudy
1:40 AM 52 °F 46 °F 75% 29.99 in 6 mi Calm Calm - -  
1:40 AM 53.6 °F 46.4 °F 77% 29.92 in 10.0 mi Calm Calm - N/A   Mostly Cloudy
5:42 AM 50.0 °F 42.8 °F 76% 29.96 in 10.0 mi Calm Calm - N/A   Scattered Clouds
6:42 AM 50.0 °F 42.8 °F 76% 29.98 in 10.0 mi Calm Calm - N/A   Mostly Cloudy
7:40 AM 50 °F 47 °F 84% 30.02 in 10 mi South 2.2 mph - -   Haze
7:40 AM 53.6 °F 42.8 °F 67% 29.99 in 10.0 mi Calm Calm - N/A   Mostly Cloudy
8:43 AM 57.2 °F 48.2 °F 72% 30.01 in 10.0 mi Calm Calm - N/A   Mostly Cloudy
9:42 AM 64.4 °F 48.2 °F 56% 30.01 in 10.0 mi Calm Calm - N/A   Overcast
10:41 AM 68.0 °F 46.4 °F 46% 30.03 in 15.0 mi Calm Calm - N/A   Overcast
10:50 AM 66 °F 58 °F 69% 30.04 in 10 mi West 2.2 mph - -   Haze
11:40 AM 71.6 °F 46.4 °F 41% 29.99 in 10.0 mi WNW 10.4 mph - N/A   Overcast
12:42 PM 73.4 °F 50.0 °F 44% 29.97 in 15.0 mi WNW 8.1 mph - N/A   Overcast
1:44 PM 75.2 °F 48.2 °F 38% 29.91 in 15.0 mi WSW 5.8 mph - N/A   Overcast
1:50 PM 74 °F 45 °F 24% 29.95 in 10 mi West 2.2 mph - -   Haze
2:44 PM 75.2 °F 48.2 °F 38% 29.92 in 15.0 mi SW 5.8 mph - N/A   Overcast
3:41 PM 77.0 °F 51.8 °F 41% 29.91 in 15.0 mi SW 5.8 mph - N/A   Overcast
4:46 PM 71.6 °F 46.4 °F 41% 29.92 in 15.0 mi WSW 11.5 mph - N/A   Overcast
4:50 PM 74 °F 41 °F 20% 29.90 in 10 mi West 2.2 mph - -   Haze
5:41 PM 69.8 °F 48.2 °F 46% 29.91 in 15.0 mi WNW 11.5 mph - N/A   Overcast
6:46 PM 66.2 °F 51.8 °F 60% 29.93 in 10.0 mi WNW 9.2 mph - N/A   Overcast
7:44 PM 64.4 °F 50.0 °F 59% 29.93 in 10.0 mi WNW 5.8 mph - N/A   Overcast
7:50 PM 63 °F 48 °F 48% 29.91 in 6 mi West 2.2 mph - -  
8:40 PM 62.6 °F 51.8 °F 68% 29.96 in 13.0 mi Calm Calm - N/A   Mostly Cloudy
9:44 PM 59.0 °F 53.6 °F 82% 29.96 in 10.0 mi Calm Calm - N/A   Scattered Clouds
10:50 PM 57 °F 51 °F 75% 29.95 in 6 mi WNW 2.2 mph - -